Regional Weather Roundup
Issued by NWS Charleston, WV

Home | Current Version | Previous Version | Graphics & Text | Print | Product List | Glossary On
Versions: 1 2 3 4 5 6 7 8 9 10 11 12 13 14 15 16 17 18 19 20 21 22 23 24 25 26 27 28 29 30 31 32 33 34 35 36 37
000
ASUS41 KRLX 231810
RWRRLX
West Virginia Regional Weather Roundup
National Weather Service Charleston WV
200 PM EDT THU OCT 23 2014

Note: "fair" indicates few or no clouds below 12,000 feet with no
significant weather and/or obstructions to visibility.

WVZ003-231900-
Northern Panhandle of West Virginia

CITY           SKY/WX    TMP DP  RH WIND       PRES   REMARKS
WHEELING       CLOUDY    58  43  57 N13       30.11F
$$

WVZ009-231900-
Northwest West Virginia

CITY           SKY/WX    TMP DP  RH WIND       PRES   REMARKS
PARKERSBURG    CLOUDY    55  43  63 NW9       30.19F
$$

WVZ006-231900-
Western West Virginia

CITY           SKY/WX    TMP DP  RH WIND       PRES   REMARKS
HUNTINGTON     CLOUDY    56  42  59 VRB6      30.18F
$$

WVZ015-231900-
West Central West Virginia

CITY           SKY/WX    TMP DP  RH WIND       PRES   REMARKS
CHARLESTON     PTSUNNY   55  42  61 NW8       30.16F
$$

WVZ022-031-231900-
North Central West Virginia

CITY           SKY/WX    TMP DP  RH WIND       PRES   REMARKS
CLARKSBURG     CLOUDY    53  44  71 W9        30.12F
MORGANTOWN     CLOUDY    58  42  55 NW6       30.10F
$$

WVZ025-035-042-045-231900-
Southern West Virginia

CITY           SKY/WX    TMP DP  RH WIND       PRES   REMARKS
BECKLEY        CLOUDY    48  39  71 N13       30.13F
LOGAN          MOCLDY    52  43  71 VRB5      30.16F
BLUEFIELD      CLOUDY    47  38  71 NW8       30.14F
LEWISBURG      CLOUDY    52  39  61 N8        30.10F
$$

WVZ047-231900-
Northern Mountains of West Virginia

CITY           SKY/WX    TMP DP  RH WIND       PRES   REMARKS
ELKINS         CLOUDY    47  43  86 W3        30.12F
$$

WVZ052-231900-
Eastern Panhandle of West Virginia

CITY           SKY/WX    TMP DP  RH WIND       PRES   REMARKS
MARTINSBURG    PTSUNNY   61  40  45 NW25G35   29.93F
PETERSBURG     PTSUNNY   57  40  51 NW12      30.04F
$$



USA.gov is the U.S. government's official web portal to all federal, state and local government web resources and services.